Regional Weather Roundup
Issued by NWS

Home | Current Version | Previous Version | Graphics & Text | Print | Product List | Glossary On
Versions: 1 2 3 4 5 6 7 8 9 10 11 12 13 14 15 16 17 18 19 20 21 22 23 24 25 26 27 28 29 30 31 32 33 34 35 36 37 38 39 40 41 42 43 44 45 46 47 48 49 50
000
ASUS43 KMKX 011300
RWRWI

WISCONSIN REGIONAL WEATHER ROUNDUP
NATIONAL WEATHER SERVICE MILWAUKEE/SULLIVAN WI
800 AM CDT SAT AUG 01 2015

NOTE: "FAIR" INDICATES FEW OR NO CLOUDS BELOW 12,000 FEET WITH NO
SIGNIFICANT WEATHER AND/OR OBSTRUCTIONS TO VISIBILITY.

WIZ001-002-006>008-014>016-023>028-011400-
NORTHWEST WISCONSIN

CITY           SKY/WX    TMP DP  RH WIND       PRES   REMARKS
SUPERIOR ARPT  SUNNY     58  53  83 SW6       29.94S
ASHLAND        SUNNY     63  55  75 SW6       29.93S
HAYWARD        SUNNY     60  53  77 CALM      29.97S
SIREN          SUNNY     59  56  88 CALM      29.97S
CUMBERLAND     SUNNY     59  55  88 CALM      29.97S
RICE LAKE      SUNNY     59  55  85 CALM      29.99R
CHETEK         SUNNY     61  56  84 CALM      29.97S
LADYSMITH      SUNNY     61  54  76 CALM      29.98S
EAU CLAIRE     NOT AVBL
MENOMONIE      PTSUNNY   63  59  87 CALM      29.98R
NEW RICHMOND   MOSUNNY   62  60  93 CALM      29.98R
OSCEOLA        PTSUNNY   63  63 100 CALM      29.99S
$$

WIZ003>005-009-010-017-018-011400-
NORTH CENTRAL WISCONSIN

CITY           SKY/WX    TMP DP  RH WIND       PRES   REMARKS
MANITOWISH WTR SUNNY     57  54  88 W3        29.94S
ARBOR VITAE    SUNNY     60  55  83 NW3       29.94R
WOODRUFF       SUNNY     60  55  83 NW3       29.94R
RHINELANDER    SUNNY     60  51  72 W10       29.95S
EAGLE RIVER    SUNNY     59  53  80 W7        29.93S
LAND O LAKES   SUNNY     60  53  77 W3        29.94S
PHILLIPS       SUNNY     57  52  81 CALM      29.96S
TOMAHAWK       SUNNY     56  52  86 CALM      29.96R
MEDFORD        SUNNY     59  53  79 NW3       29.97R
MERRILL        NOT AVBL
$$

WIZ029-030-035-036-043>047-011400-
CENTRAL WISCONSIN

CITY           SKY/WX    TMP DP  RH WIND       PRES   REMARKS
WAUSAU         SUNNY     65  52  62 NW7       29.94S
MOSINEE        MOSUNNY   63  54  72 NW7       29.97R
MARSHFIELD     CLOUDY    64  53  67 NW6       29.98R
STEVENS POINT  PTSUNNY   62  51  66 W7        29.97S
WAUPACA        MOSUNNY   67  54  61 W6        29.95F
WAUTOMA        NOT AVBL
WISC RAPIDS    PTSUNNY   64  53  67 NW5       29.98S
CAMP DOUGLAS   NOT AVBL
$$

WIZ011>013-019>022-031-037>040-048>050-011400-
NORTHEAST WISCONSIN

CITY           SKY/WX    TMP DP  RH WIND       PRES   REMARKS
ANTIGO         SUNNY     58  53  83 W7        29.95S
SHAWANO        SUNNY     63  54  72 W5        29.93S
OCONTO         SUNNY     63  55  74 W10       29.90R
STURGEON BAY   SUNNY     64  54  68 W6        29.92S
GREEN BAY      SUNNY     66  55  67 W10       29.93S
MANITOWOC      NOT AVBL
APPLETON       MOSUNNY   64  52  63 W8        29.95S
CLINTONVILLE   SUNNY     63  52  67 W8        29.93S
OSHKOSH        MOSUNNY   66  54  65 W7        29.95R
$$

WIZ032>034-041-042-053>061-011400-
SOUTHWEST WISCONSIN

CITY           SKY/WX    TMP DP  RH WIND       PRES   REMARKS
LA CROSSE      PTSUNNY   69  60  73 SE5       29.97S
SPARTA         SUNNY     61  54  78 CALM      29.98S
VIROQUA        CLOUDY    64  60  88 CALM      30.00S
BOSCOBEL       MOSUNNY   64  59  83 SW3       29.99F
PRAIRIE DU CHI PTSUNNY   64  60  87 CALM      29.99F
PLATTEVILLE    PTSUNNY   63  61  93 CALM      30.01S
$$

WIZ056-057-062-063-064-067-068-011400-
SOUTH CENTRAL WISCONSIN

CITY           SKY/WX    TMP DP  RH WIND       PRES   REMARKS
REEDSBURG      CLOUDY    61  56  84 CALM      29.98S
BARABOO/DELLS  PTSUNNY   66  56  70 SW3       29.98S
LONE ROCK      NOT AVBL
MINERAL POINT  CLOUDY    63  59  88 W3        30.01S
MADISON        PTSUNNY   69  57  65 NW7       29.98S
MIDDLETON      PTSUNNY   69  58  68 W7        29.99S
WATERTOWN      MOSUNNY   64  60  88 W3        29.98S
MONROE         MOSUNNY   64  57  77 W7        30.00S
JANESVILLE       N/A     66  57  72 W8        29.99S
$$

WIZ051-052-058>065-066-070>072-011400-
SOUTHEAST WISCONSIN

CITY           SKY/WX    TMP DP  RH WIND       PRES   REMARKS
MILWAUKEE      MOSUNNY   71  53  52 W10       29.96S
WAUKESHA       SUNNY     64  54  68 W9G17     29.99R
MILWAUKEE/TIMM SUNNY     68  54  60 W7        29.98R
RACINE         SUNNY     69  54  58 W8        29.98S
BURLINGTON     SUNNY     65  55  70 W6        29.98R
KENOSHA        SUNNY     69  58  67 W6        29.98R
FOND DU LAC    MOSUNNY   67  56  67 W8        29.96R
SHEBOYGAN      SUNNY     68  56  65 W8        29.94S
WEST BEND      MOSUNNY   66  52  59 W8        29.96S
JUNEAU         PTSUNNY   61  55  82 SW6       29.98S
$$

LSZ147-162-011400-
LAKE SUPERIOR

STATION/POSITION TIME  TEMP    WIND        PRES    WAVE
                       AIR SEA DIR/SP/G            HT/PER
                 (UTC) (F)     (DEG/KT/KT) (MB)    (FT/S)
W MID LAKE BUOY  1150   57 54  260/ 14/ 16 1011.4R   2/ 3
DEVILS ISLAND    1200   60     250/ 15/ 18 1012.6S
PORT WING        1200   59     160/  3/  5 1013.5
SAXON HARBOR     1240   63                 1012.9S
$$

LMZ867-665-643>646-011400-
LAKE MICHIGAN

STATION/POSITION TIME  TEMP    WIND        PRES    WAVE
                       AIR SEA DIR/SP/G            HT/PER
                 (UTC) (F)     (DEG/KT/KT) (MB)    (FT/S)
CHAMBERS ISLAND  1200   64     240/  6/ 10 1011.9R
S GREEN BAY BUOY 1230   62 66  270/ 12/ 14 1013.7R
N MID LAKE BUOY  1150   66 68  280/ 16/ 17 1010.8R   2/ 3
NORTHPORT PIER   1200   67     300/  9/ 14 1011.9R
SISTER BAY       1214   69     330/ 15/ 16   N/A
ALGOMA LAKESHORE 1227          300/  3/  6   N/A
KEWAUNEE LAKESHO 1200   63     290/  4/  6 1012.0R
SHEBOYGAN LAKESH 1200   65     260/ 11/ 13 1013.6R
PORT WASHINGTON  1200   69     280/  6/  9 1014.6
ATWATER BUOY     1200   65 61  260/ 10/ 10 1015.6R
MILWAUKEE LAKESH 1200   68     280/  8/ 11   N/A
KENOSHA   LAKESH 1200   68     270/  9/ 12 1014.6S
$$

TC  - TEMPERATURE IN CELSIUS
VSB - VISIBILITY IN STATUTE MILES
WCI - WIND CHILL INDEX
HX  - HEAT INDEX




USA.gov is the U.S. government's official web portal to all federal, state and local government web resources and services.